Flag for U.S.A. Weather past 2 weeks in Warminster Township, Pennsylvania, U.S.A.

Now
87 °F

Passing clouds.


Feels Like: 89 °F
Forecast: 70 / 91 °F
Wind: 6 mph from South

Location: Doylestown Airport

Current Time: Jul 29, 2015 at 12:42:20 PM

Latest Report: Jul 29, 2015 at 11:54 AM


Visibility: 10 mi

Pressure: 29.98 "Hg

Humidity: 50%

Dew point: 66 °F

Location of Warminster TownshipLocation

Historic Weather in Warminster Township — Graph

°F

Warminster Township temperature yesterday

Maximum temperature yesterday: 90 °F (at 4:54 PM)
Minimum temperature yesterday: 67 °F (at 6:03 AM)
Average temperature yesterday: 78 °F

Past Weeks' High & Low Weather Summary

 TemperatureHumidityPressure
High91 °F (Jul 19, 3:54 PM)100% (Jul 14, 11:54 PM)30.11 "Hg (Jul 14, 11:54 PM)
Low57 °F (Jul 16, 5:54 AM)30% (Jul 25, 4:54 PM)29.53 "Hg (Jul 14, 7:54 PM)
Average74 °F73%29.88 "Hg
* Reported Jul 14 10:54 AM — Jul 29 10:54 AM, Warminster Township, Weather by CustomWeather, © 2015

Note: Actual official high and low records may vary slightly from our data, if they occured in-between our weather recording intervals... More about our weather records

Advertising

Warminster Township weather history for previous 24 hours

 ConditionsComfort  
Time TempWeatherWind HumidityBarometerVisibility
10:54 AM
Wed, Jul 29
85 °FSunny.3 mph53%29.98 "Hg10 mi
9:54 AM83 °FSunny.No wind61%29.99 "Hg10 mi
8:54 AM80 °FSunny.3 mph69%29.98 "Hg10 mi
7:54 AM75 °FSunny.3 mph82%29.98 "Hg10 mi
6:54 AM70 °FClear.3 mph93%29.98 "Hg10 mi
5:54 AM69 °FClear.No wind93%29.97 "Hg10 mi
4:54 AM69 °FClear.No wind100%29.95 "Hg10 mi
3:54 AM70 °FClear.No wind100%29.96 "Hg7 mi
2:54 AM71 °FClear.3 mph96%29.96 "Hg10 mi
1:54 AM72 °FClear.No wind93%29.98 "Hg10 mi
12:54 AM71 °FClear.No wind87%29.98 "Hg10 mi
11:54 PM
Tue, Jul 28
74 °FClear.No wind79%29.98 "Hg10 mi
10:54 PM72 °FClear.No wind76%29.97 "Hg10 mi
9:54 PM74 °FClear.No wind71%29.98 "Hg10 mi
8:54 PM77 °FSunny.No wind66%29.96 "Hg10 mi
7:54 PM79 °FSunny.No wind62%29.95 "Hg10 mi
6:54 PM85 °FSunny.No wind46%29.93 "Hg10 mi
5:54 PM88 °FSunny.5 mph39%29.94 "Hg10 mi
4:54 PM90 °FSunny.5 mph38%29.94 "Hg10 mi
3:54 PM89 °FPassing clouds.No wind41%29.95 "Hg10 mi
2:54 PM89 °FPassing clouds.5 mph43%29.95 "Hg10 mi
1:54 PM86 °FSunny.No wind51%29.96 "Hg10 mi
12:54 PM85 °FScattered clouds.3 mph57%29.98 "Hg10 mi
Weather by CustomWeather, © 2015

See weather overviewHow to use our weather pages